Flag for Saudi Arabia Weather past 2 weeks in Turaif, Saudi Arabia

Now
95 °F

Sunny.


Feels Like: 92 °F
Forecast: 67 / 90 °F
Wind: 7 mph from West

Location: Turaif

Current Time: Aug 30, 2015 at 1:38:35 PM

Latest Report: Aug 30, 2015 at 1:00 PM


Visibility: 10 mi

Pressure: 29.86 "Hg (27.24 "Hg at 827m altitude)

Humidity: 20%

Dew point: 48 °F

Location of TuraifLocation

Historic Weather in Turaif — Graph

°F

Turaif temperature yesterday

Maximum temperature yesterday: 95 °F (at 5:00 PM)
Minimum temperature yesterday: 68 °F (at 7:00 AM)
Average temperature yesterday: 81 °F

Past Weeks' High & Low Weather Summary

 TemperatureHumidityPressure
High109 °F (Aug 18, 2:00 PM)74% (Aug 25, 3:00 AM)30.01 "Hg (Aug 25, 3:00 AM)
Low68 °F (Aug 29, 7:00 AM)9% (Aug 18, 2:00 PM)29.77 "Hg (Aug 22, 5:00 PM)
Average88 °F27%29.87 "Hg
* Reported Aug 15 12:00 Noon — Aug 30 12:00 Noon, Turaif, Weather by CustomWeather, © 2015

Note: Actual official high and low records may vary slightly from our data, if they occured in-between our weather recording intervals... More about our weather records

Advertising

Turaif weather history for previous 24 hours

 ConditionsComfort  
Time TempWeatherWind HumidityBarometerVisibility
12:00 PM
Sun, Aug 30
91 °FSunny.7 mph21%29.89 "Hg10 mi
11:00 AM88 °FSunny.9 mph29%29.89 "Hg10 mi
10:00 AM84 °FSunny.9 mph37%29.89 "Hg10 mi
9:00 AM79 °FSunny.12 mph48%29.89 "Hg10 mi
8:00 AM77 °FSunny.9 mph51%29.92 "Hg10 mi
7:00 AM72 °FSunny.2 mph57%29.92 "Hg10 mi
6:00 AM70 °FClear.7 mph57%29.89 "Hg10 mi
5:00 AM72 °FClear.7 mph53%29.89 "Hg10 mi
4:00 AM73 °FClear.7 mph50%29.89 "Hg10 mi
3:00 AM73 °FClear.12 mph47%29.89 "Hg10 mi
2:00 AM75 °FClear.7 mph41%29.92 "Hg10 mi
1:00 AM75 °FClear.5 mph39%29.92 "Hg10 mi
12:00 AM79 °FClear.9 mph32%29.92 "Hg10 mi
11:00 PM
Sat, Aug 29
81 °FClear.7 mph30%29.92 "Hg10 mi
10:00 PM82 °FClear.9 mph20%29.92 "Hg10 mi
9:00 PM84 °FClear.9 mph18%29.92 "Hg10 mi
8:00 PM88 °FClear.7 mph15%29.89 "Hg10 mi
7:00 PM91 °FSunny.12 mph15%29.89 "Hg10 mi
6:00 PM93 °FSunny.9 mph16%29.89 "Hg10 mi
5:00 PM95 °FSunny.9 mph16%29.89 "Hg10 mi
Weather by CustomWeather, © 2015

See weather overviewHow to use our weather pages